Terminal Aerodrome Forecast
Issued by NWS

Home | Current Version | Previous Version | Graphics & Text | Print | Product List | Glossary Off
Versions: 1 2 3 4 5 6 7 8 9 10 11 12 13 14 15 16 17 18

000
FTUS43 KDDC 141431 AAB
TAFGCK
TAF AMD
KGCK 141431Z 1415/1512 33013KT P6SM OVC050
     FM142100 35015G25KT P6SM SCT070
     FM150000 33009KT P6SM SKC
     FM150900 27007KT P6SM SKC=

USA.gov is the U.S. government's official web portal to all federal, state and local government web resources and services.